Year,Month,Day,Hour,Minute,Value (Times are PST for temperature in C)
2014,06,07,00,00,15.00
2014,06,07,00,01,15.00
2014,06,07,00,02,15.00
2014,06,07,00,03,15.00
2014,06,07,00,04,15.00
2014,06,07,00,05,15.00
2014,06,07,00,06,15.00
2014,06,07,00,07,15.00
2014,06,07,00,08,15.00
2014,06,07,00,09,15.00
2014,06,07,00,10,15.00
2014,06,07,00,11,15.00
2014,06,07,00,12,15.00
2014,06,07,00,13,15.00
2014,06,07,00,14,15.00
2014,06,07,00,15,15.00
2014,06,07,00,16,14.90
2014,06,07,00,17,14.90
2014,06,07,00,18,14.90
2014,06,07,00,19,14.80
2014,06,07,00,20,14.80
2014,06,07,00,21,14.80
2014,06,07,00,22,14.80
2014,06,07,00,23,14.70
2014,06,07,00,24,14.70
2014,06,07,00,25,14.70
2014,06,07,00,26,14.70
2014,06,07,00,27,14.70
2014,06,07,00,28,14.60
2014,06,07,00,29,14.60
2014,06,07,00,30,14.60
2014,06,07,00,31,14.60
2014,06,07,00,32,14.50
2014,06,07,00,33,14.50
2014,06,07,00,34,14.50
2014,06,07,00,35,14.50
2014,06,07,00,36,14.50
2014,06,07,00,37,14.40
2014,06,07,00,38,14.40
2014,06,07,00,39,14.40
2014,06,07,00,40,14.30
2014,06,07,00,41,14.30
2014,06,07,00,42,14.30
2014,06,07,00,43,14.20
2014,06,07,00,44,14.20
2014,06,07,00,45,14.20
2014,06,07,00,46,14.20
2014,06,07,00,47,14.20
2014,06,07,00,48,14.20
2014,06,07,00,49,14.20
2014,06,07,00,50,14.20
2014,06,07,00,51,14.20
2014,06,07,00,52,14.20
2014,06,07,00,53,14.20
2014,06,07,00,54,14.20
2014,06,07,00,55,14.30
2014,06,07,00,56,14.40
2014,06,07,00,57,14.50
2014,06,07,00,58,14.60
2014,06,07,00,59,14.80
2014,06,07,01,00,15.00
2014,06,07,01,01,15.00
2014,06,07,01,02,15.10
2014,06,07,01,03,15.30
2014,06,07,01,04,15.40
2014,06,07,01,05,15.50
2014,06,07,01,06,15.60
2014,06,07,01,07,15.70
2014,06,07,01,08,15.80
2014,06,07,01,09,15.80
2014,06,07,01,10,15.90
2014,06,07,01,11,15.90
2014,06,07,01,12,16.00
2014,06,07,01,13,16.00
2014,06,07,01,14,16.10
2014,06,07,01,15,16.10
2014,06,07,01,16,16.10
2014,06,07,01,17,16.10
2014,06,07,01,18,16.10
2014,06,07,01,19,16.10
2014,06,07,01,20,16.10
2014,06,07,01,21,16.10
2014,06,07,01,22,16.10
2014,06,07,01,23,16.10
2014,06,07,01,24,16.10
2014,06,07,01,25,16.10
2014,06,07,01,26,16.10
2014,06,07,01,27,16.10
2014,06,07,01,28,16.10
2014,06,07,01,29,16.10
2014,06,07,01,30,16.10
2014,06,07,01,31,16.10
2014,06,07,01,32,16.10
2014,06,07,01,33,16.00
2014,06,07,01,34,16.00
2014,06,07,01,35,16.00
2014,06,07,01,36,16.00
2014,06,07,01,37,16.00
2014,06,07,01,38,15.90
2014,06,07,01,39,15.90
2014,06,07,01,40,15.90
2014,06,07,01,41,15.90
2014,06,07,01,42,15.80
2014,06,07,01,43,15.80
2014,06,07,01,44,15.80
2014,06,07,01,45,15.80
2014,06,07,01,46,15.70
2014,06,07,01,47,15.60
2014,06,07,01,48,15.50
2014,06,07,01,49,15.40
2014,06,07,01,50,15.30
2014,06,07,01,51,15.10
2014,06,07,01,52,15.00
2014,06,07,01,53,15.00
2014,06,07,01,54,14.80
2014,06,07,01,55,14.70
2014,06,07,01,56,14.60
2014,06,07,01,57,14.60
2014,06,07,01,58,14.50
2014,06,07,01,59,14.40
2014,06,07,02,00,14.40
2014,06,07,02,01,14.40
2014,06,07,02,02,14.30
2014,06,07,02,03,14.30
2014,06,07,02,04,14.30
2014,06,07,02,05,14.30
2014,06,07,02,06,14.20
2014,06,07,02,07,14.20
2014,06,07,02,08,14.20
2014,06,07,02,09,14.20
2014,06,07,02,10,14.10
2014,06,07,02,11,14.20
2014,06,07,02,12,14.20
2014,06,07,02,13,14.10
2014,06,07,02,14,14.10
2014,06,07,02,15,14.10
2014,06,07,02,16,14.10
2014,06,07,02,17,14.10
2014,06,07,02,18,14.10
2014,06,07,02,19,14.10
2014,06,07,02,20,14.10
2014,06,07,02,21,14.00
2014,06,07,02,22,14.00
2014,06,07,02,23,14.00
2014,06,07,02,24,14.00
2014,06,07,02,25,13.90
2014,06,07,02,26,13.90
2014,06,07,02,27,13.90
2014,06,07,02,28,13.90
2014,06,07,02,29,13.90
2014,06,07,02,30,13.90
2014,06,07,02,31,13.90
2014,06,07,02,32,13.90
2014,06,07,02,33,13.90
2014,06,07,02,34,13.80
2014,06,07,02,35,13.80
2014,06,07,02,36,13.80
2014,06,07,02,37,13.80
2014,06,07,02,38,13.80
2014,06,07,02,39,13.80
2014,06,07,02,40,13.80
2014,06,07,02,41,13.70
2014,06,07,02,42,13.70
2014,06,07,02,43,13.70
2014,06,07,02,44,13.70
2014,06,07,02,45,13.70
2014,06,07,02,46,13.70
2014,06,07,02,47,13.70
2014,06,07,02,48,13.70
2014,06,07,02,49,13.60
2014,06,07,02,50,13.60
2014,06,07,02,51,13.60
2014,06,07,02,52,13.60
2014,06,07,02,53,13.60
2014,06,07,02,54,13.60
2014,06,07,02,55,13.60
2014,06,07,02,56,13.70
2014,06,07,02,57,13.70
2014,06,07,02,58,13.70
2014,06,07,02,59,13.70
2014,06,07,03,00,13.80
2014,06,07,03,01,13.80
2014,06,07,03,02,13.80
2014,06,07,03,03,13.80
2014,06,07,03,04,13.80
2014,06,07,03,05,13.90
2014,06,07,03,06,13.90
2014,06,07,03,07,13.90
2014,06,07,03,08,13.90
2014,06,07,03,09,13.90
2014,06,07,03,10,13.90
2014,06,07,03,11,13.90
2014,06,07,03,12,13.90
2014,06,07,03,13,13.90
2014,06,07,03,14,13.90
2014,06,07,03,15,13.90
2014,06,07,03,16,13.90
2014,06,07,03,17,13.90
2014,06,07,03,18,13.90
2014,06,07,03,19,13.90
2014,06,07,03,20,14.00
2014,06,07,03,21,14.00
2014,06,07,03,22,14.00
2014,06,07,03,23,14.10
2014,06,07,03,24,14.10
2014,06,07,03,25,14.10
2014,06,07,03,26,14.10
2014,06,07,03,27,14.10
2014,06,07,03,28,14.20
2014,06,07,03,29,14.20
2014,06,07,03,30,14.20
2014,06,07,03,31,14.20
2014,06,07,03,32,14.20
2014,06,07,03,33,14.30
2014,06,07,03,34,14.30
2014,06,07,03,35,14.30
2014,06,07,03,36,14.30
2014,06,07,03,37,14.30
2014,06,07,03,38,14.30
2014,06,07,03,39,14.30
2014,06,07,03,40,14.30
2014,06,07,03,41,14.30
2014,06,07,03,42,14.30
2014,06,07,03,43,14.30
2014,06,07,03,44,14.30
2014,06,07,03,45,14.30
2014,06,07,03,46,14.30
2014,06,07,03,47,14.30
2014,06,07,03,48,14.30
2014,06,07,03,49,14.30
2014,06,07,03,50,14.30
2014,06,07,03,51,14.30
2014,06,07,03,52,14.30
2014,06,07,03,53,14.30
2014,06,07,03,54,14.30
2014,06,07,03,55,14.30
2014,06,07,03,56,14.30
2014,06,07,03,57,14.30
2014,06,07,03,58,14.30
2014,06,07,03,59,14.40
2014,06,07,04,00,14.40
2014,06,07,04,01,14.40
2014,06,07,04,02,14.40
2014,06,07,04,03,14.40
2014,06,07,04,04,14.40
2014,06,07,04,05,14.40
2014,06,07,04,06,14.40
2014,06,07,04,07,14.40
2014,06,07,04,08,14.40
2014,06,07,04,09,14.40
2014,06,07,04,10,14.40
2014,06,07,04,11,14.40
2014,06,07,04,12,14.40
2014,06,07,04,13,14.40
2014,06,07,04,14,14.40
2014,06,07,04,15,14.40
2014,06,07,04,16,14.40
2014,06,07,04,17,14.40
2014,06,07,04,18,14.40
2014,06,07,04,19,14.40
2014,06,07,04,20,14.40
2014,06,07,04,21,14.40
2014,06,07,04,22,14.40
2014,06,07,04,23,14.40
2014,06,07,04,24,14.40
2014,06,07,04,25,14.40
2014,06,07,04,26,14.40
2014,06,07,04,27,14.40
2014,06,07,04,28,14.40
2014,06,07,04,29,14.40
2014,06,07,04,30,14.40
2014,06,07,04,31,14.40
2014,06,07,04,32,14.40
2014,06,07,04,33,14.40
2014,06,07,04,34,14.40
2014,06,07,04,35,14.40
2014,06,07,04,36,14.40
2014,06,07,04,37,14.40
2014,06,07,04,38,14.40
2014,06,07,04,39,14.40
2014,06,07,04,40,14.40
2014,06,07,04,41,14.40
2014,06,07,04,42,14.40
2014,06,07,04,43,14.30
2014,06,07,04,44,14.30
2014,06,07,04,45,14.30
2014,06,07,04,46,14.30
2014,06,07,04,47,14.30
2014,06,07,04,48,14.30
2014,06,07,04,49,14.30
2014,06,07,04,50,14.30
2014,06,07,04,51,14.30
2014,06,07,04,52,14.20
2014,06,07,04,53,14.20
2014,06,07,04,54,14.20
2014,06,07,04,55,14.20
2014,06,07,04,56,14.20
2014,06,07,04,57,14.20
2014,06,07,04,58,14.20
2014,06,07,04,59,14.20
2014,06,07,05,00,14.20
2014,06,07,05,01,14.20
2014,06,07,05,02,14.20
2014,06,07,05,03,14.20
2014,06,07,05,04,14.20
2014,06,07,05,05,14.20
2014,06,07,05,06,14.20
2014,06,07,05,07,14.20
2014,06,07,05,08,14.20
2014,06,07,05,09,14.20
2014,06,07,05,10,14.20
2014,06,07,05,11,14.20
2014,06,07,05,12,14.20
2014,06,07,05,13,14.20
2014,06,07,05,14,14.20
2014,06,07,05,15,14.20
2014,06,07,05,16,14.20
2014,06,07,05,17,14.30
2014,06,07,05,18,14.30
2014,06,07,05,19,14.30
2014,06,07,05,20,14.30
2014,06,07,05,21,14.30
2014,06,07,05,22,14.30
2014,06,07,05,23,14.30
2014,06,07,05,24,14.30
2014,06,07,05,25,14.30
2014,06,07,05,26,14.30
2014,06,07,05,27,14.30
2014,06,07,05,28,14.30
2014,06,07,05,29,14.30
2014,06,07,05,30,14.30
2014,06,07,05,31,14.30
2014,06,07,05,32,14.30
2014,06,07,05,33,14.30
2014,06,07,05,34,14.20
2014,06,07,05,35,14.20
2014,06,07,05,36,14.20
2014,06,07,05,37,14.20
2014,06,07,05,38,14.20
2014,06,07,05,39,14.20
2014,06,07,05,40,14.20
2014,06,07,05,41,14.10
2014,06,07,05,42,14.10
2014,06,07,05,43,14.10
2014,06,07,05,44,14.10
2014,06,07,05,45,14.10
2014,06,07,05,46,14.10
2014,06,07,05,47,14.10
2014,06,07,05,48,14.10
2014,06,07,05,49,14.10
2014,06,07,05,50,14.10
2014,06,07,05,51,14.10
2014,06,07,05,52,14.10
2014,06,07,05,53,14.10
2014,06,07,05,54,14.00
2014,06,07,05,55,14.00
2014,06,07,05,56,14.00
2014,06,07,05,57,14.00
2014,06,07,05,58,14.00
2014,06,07,05,59,14.00
2014,06,07,06,00,14.00
2014,06,07,06,01,14.00
2014,06,07,06,02,14.00
2014,06,07,06,03,14.00
2014,06,07,06,04,14.00
2014,06,07,06,05,14.00
2014,06,07,06,06,14.00
2014,06,07,06,07,14.00
2014,06,07,06,08,14.00
2014,06,07,06,09,14.00
2014,06,07,06,10,14.00
2014,06,07,06,11,14.00
2014,06,07,06,12,14.00
2014,06,07,06,13,14.00
2014,06,07,06,14,14.00
2014,06,07,06,15,14.00
2014,06,07,06,16,14.00
2014,06,07,06,17,14.00
2014,06,07,06,18,14.00
2014,06,07,06,19,14.00
2014,06,07,06,20,14.00
2014,06,07,06,21,14.10
2014,06,07,06,22,14.10
2014,06,07,06,23,14.10
2014,06,07,06,24,14.10
2014,06,07,06,25,14.10
2014,06,07,06,26,14.10
2014,06,07,06,27,14.10
2014,06,07,06,28,14.10
2014,06,07,06,29,14.10
2014,06,07,06,30,14.10
2014,06,07,06,31,14.10
2014,06,07,06,32,14.10
2014,06,07,06,33,14.10
2014,06,07,06,34,14.10
2014,06,07,06,35,14.10
2014,06,07,06,36,14.10
2014,06,07,06,37,14.20
2014,06,07,06,38,14.20
2014,06,07,06,39,14.20
2014,06,07,06,40,14.20
2014,06,07,06,41,14.20
2014,06,07,06,42,14.30
2014,06,07,06,43,14.30
2014,06,07,06,44,14.30
2014,06,07,06,45,14.30
2014,06,07,06,46,14.30
2014,06,07,06,47,14.30
2014,06,07,06,48,14.40
2014,06,07,06,49,14.40
2014,06,07,06,50,14.40
2014,06,07,06,51,14.40
2014,06,07,06,52,14.40
2014,06,07,06,53,14.50
2014,06,07,06,54,14.50
2014,06,07,06,55,14.50
2014,06,07,06,56,14.50
2014,06,07,06,57,14.60
2014,06,07,06,58,14.60
2014,06,07,06,59,14.60
2014,06,07,07,00,14.60
2014,06,07,07,01,14.60
2014,06,07,07,02,14.60
2014,06,07,07,03,14.70
2014,06,07,07,04,14.70
2014,06,07,07,05,14.70
2014,06,07,07,06,14.70
2014,06,07,07,07,14.70
2014,06,07,07,08,14.70
2014,06,07,07,09,14.70
2014,06,07,07,10,14.70
2014,06,07,07,11,14.70
2014,06,07,07,12,14.70
2014,06,07,07,13,14.70
2014,06,07,07,14,14.70
2014,06,07,07,15,14.70
2014,06,07,07,16,14.70
2014,06,07,07,17,14.70
2014,06,07,07,18,14.70
2014,06,07,07,19,14.70
2014,06,07,07,20,14.70
2014,06,07,07,21,14.70
2014,06,07,07,22,14.70
2014,06,07,07,23,14.70
2014,06,07,07,24,14.70
2014,06,07,07,25,14.70
2014,06,07,07,26,14.70
2014,06,07,07,27,14.70
2014,06,07,07,28,14.70
2014,06,07,07,29,14.70
2014,06,07,07,30,14.80
2014,06,07,07,31,14.80
2014,06,07,07,32,14.80
2014,06,07,07,33,14.80
2014,06,07,07,34,14.80
2014,06,07,07,35,14.80
2014,06,07,07,36,14.80
2014,06,07,07,37,14.80
2014,06,07,07,38,14.80
2014,06,07,07,39,14.80
2014,06,07,07,40,14.80
2014,06,07,07,41,14.90
2014,06,07,07,42,15.00
2014,06,07,07,43,15.00
2014,06,07,07,44,15.00
2014,06,07,07,45,15.00
2014,06,07,07,46,15.00
2014,06,07,07,47,15.00
2014,06,07,07,48,15.00
2014,06,07,07,49,15.10
2014,06,07,07,50,15.20
2014,06,07,07,51,15.20
2014,06,07,07,52,15.30
2014,06,07,07,53,15.30
2014,06,07,07,54,15.40
2014,06,07,07,55,15.40
2014,06,07,07,56,15.40
2014,06,07,07,57,15.40
2014,06,07,07,58,15.50
2014,06,07,07,59,15.60
2014,06,07,08,00,15.60
2014,06,07,08,01,15.60
2014,06,07,08,02,15.70
2014,06,07,08,03,15.70
2014,06,07,08,04,15.70
2014,06,07,08,05,15.70
2014,06,07,08,06,15.70
2014,06,07,08,07,15.80
2014,06,07,08,08,15.80
2014,06,07,08,09,15.80
2014,06,07,08,10,15.70
2014,06,07,08,11,15.70
2014,06,07,08,12,15.70
2014,06,07,08,13,15.70
2014,06,07,08,14,15.70
2014,06,07,08,15,15.70
2014,06,07,08,16,15.70
2014,06,07,08,17,15.70
2014,06,07,08,18,15.70
2014,06,07,08,19,15.80
2014,06,07,08,20,15.80
2014,06,07,08,21,15.90
2014,06,07,08,22,15.90
2014,06,07,08,23,15.90
2014,06,07,08,24,16.00
2014,06,07,08,25,16.00
2014,06,07,08,26,16.10
2014,06,07,08,27,16.10
2014,06,07,08,28,16.10
2014,06,07,08,29,16.10
2014,06,07,08,30,16.20
2014,06,07,08,31,16.20
2014,06,07,08,32,16.20
2014,06,07,08,33,16.30
2014,06,07,08,34,16.30
2014,06,07,08,35,16.30
2014,06,07,08,36,16.40
2014,06,07,08,37,16.40
2014,06,07,08,38,16.50
2014,06,07,08,39,16.50
2014,06,07,08,40,16.60
2014,06,07,08,41,16.70
2014,06,07,08,42,16.70
2014,06,07,08,43,16.70
2014,06,07,08,44,16.80
2014,06,07,08,45,16.90
2014,06,07,08,46,17.00
2014,06,07,08,47,17.20
2014,06,07,08,48,17.30
2014,06,07,08,49,17.50
2014,06,07,08,50,17.70
2014,06,07,08,51,17.80
2014,06,07,08,52,17.90
2014,06,07,08,53,18.00
2014,06,07,08,54,18.00
2014,06,07,08,55,18.10
2014,06,07,08,56,18.10
2014,06,07,08,57,18.10
2014,06,07,08,58,18.20
2014,06,07,08,59,18.30
2014,06,07,09,00,18.30
2014,06,07,09,01,18.40
2014,06,07,09,02,18.40
2014,06,07,09,03,18.40
2014,06,07,09,04,18.40
2014,06,07,09,05,18.50
2014,06,07,09,06,18.60
2014,06,07,09,07,18.60
2014,06,07,09,08,18.50
2014,06,07,09,09,18.50
2014,06,07,09,10,18.40
2014,06,07,09,11,18.40
2014,06,07,09,12,18.30
2014,06,07,09,13,18.30
2014,06,07,09,14,18.20
2014,06,07,09,15,18.10
2014,06,07,09,16,18.10
2014,06,07,09,17,18.20
2014,06,07,09,18,18.20
2014,06,07,09,19,18.30
2014,06,07,09,20,18.30
2014,06,07,09,21,18.30
2014,06,07,09,22,18.20
2014,06,07,09,23,18.20
2014,06,07,09,24,18.30
2014,06,07,09,25,18.30
2014,06,07,09,26,18.30
2014,06,07,09,27,18.40
2014,06,07,09,28,18.40
2014,06,07,09,29,18.50
2014,06,07,09,30,18.40
2014,06,07,09,31,18.20
2014,06,07,09,32,18.10
2014,06,07,09,33,17.90
2014,06,07,09,34,17.80
2014,06,07,09,35,17.80
2014,06,07,09,36,17.80
2014,06,07,09,37,17.80
2014,06,07,09,38,17.80
2014,06,07,09,39,17.90
2014,06,07,09,40,17.90
2014,06,07,09,41,17.80
2014,06,07,09,42,17.80
2014,06,07,09,43,17.80
2014,06,07,09,44,17.70
2014,06,07,09,45,17.60
2014,06,07,09,46,17.50
2014,06,07,09,47,17.50
2014,06,07,09,48,17.50
2014,06,07,09,49,17.50
2014,06,07,09,50,17.50
2014,06,07,09,51,17.60
2014,06,07,09,52,17.60
2014,06,07,09,53,17.60
2014,06,07,09,54,17.60
2014,06,07,09,55,17.70
2014,06,07,09,56,17.80
2014,06,07,09,57,17.90
2014,06,07,09,58,17.90
2014,06,07,09,59,17.90
2014,06,07,10,00,17.80
2014,06,07,10,01,17.60
2014,06,07,10,02,17.60
2014,06,07,10,03,17.50
2014,06,07,10,04,17.40
2014,06,07,10,05,17.20
2014,06,07,10,06,17.20
2014,06,07,10,07,17.10
2014,06,07,10,08,17.00
2014,06,07,10,09,17.00
2014,06,07,10,10,16.90
2014,06,07,10,11,16.90
2014,06,07,10,12,16.90
2014,06,07,10,13,16.90
2014,06,07,10,14,16.90
2014,06,07,10,15,16.90
2014,06,07,10,16,16.90
2014,06,07,10,17,17.00
2014,06,07,10,18,17.00
2014,06,07,10,19,17.10
2014,06,07,10,20,17.10
2014,06,07,10,21,17.20
2014,06,07,10,22,17.20
2014,06,07,10,23,17.20
2014,06,07,10,24,17.10
2014,06,07,10,25,17.20
2014,06,07,10,26,17.30
2014,06,07,10,27,17.50
2014,06,07,10,28,17.60
2014,06,07,10,29,17.70
2014,06,07,10,30,17.70
2014,06,07,10,31,17.70
2014,06,07,10,32,17.80
2014,06,07,10,33,17.80
2014,06,07,10,34,18.00
2014,06,07,10,35,18.10
2014,06,07,10,36,18.20
2014,06,07,10,37,18.20
2014,06,07,10,38,18.30
2014,06,07,10,39,18.30
2014,06,07,10,40,18.30
2014,06,07,10,41,18.30
2014,06,07,10,42,18.20
2014,06,07,10,43,18.10
2014,06,07,10,44,18.10
2014,06,07,10,45,18.20
2014,06,07,10,46,18.20
2014,06,07,10,47,18.20
2014,06,07,10,48,18.30
2014,06,07,10,49,18.40
2014,06,07,10,50,18.40
2014,06,07,10,51,18.40
2014,06,07,10,52,18.50
2014,06,07,10,53,18.60
2014,06,07,10,54,18.60
2014,06,07,10,55,18.60
2014,06,07,10,56,18.70
2014,06,07,10,57,18.80
2014,06,07,10,58,18.80
2014,06,07,10,59,18.90
2014,06,07,11,00,18.90
2014,06,07,11,01,18.90
2014,06,07,11,02,18.90
2014,06,07,11,03,18.80
2014,06,07,11,04,18.80
2014,06,07,11,05,18.80
2014,06,07,11,06,18.60
2014,06,07,11,07,18.50
2014,06,07,11,08,18.40
2014,06,07,11,09,18.40
2014,06,07,11,10,18.40
2014,06,07,11,11,18.50
2014,06,07,11,12,18.60
2014,06,07,11,13,18.70
2014,06,07,11,14,18.80
2014,06,07,11,15,18.90
2014,06,07,11,16,18.90
2014,06,07,11,17,19.00
2014,06,07,11,18,19.10
2014,06,07,11,19,19.10
2014,06,07,11,20,19.10
2014,06,07,11,21,19.20
2014,06,07,11,22,19.20
2014,06,07,11,23,19.20
2014,06,07,11,24,19.20
2014,06,07,11,25,19.20
2014,06,07,11,26,19.20
2014,06,07,11,27,19.20
2014,06,07,11,28,19.10
2014,06,07,11,29,19.10
2014,06,07,11,30,19.10
2014,06,07,11,31,19.10
2014,06,07,11,32,19.20
2014,06,07,11,33,19.20
2014,06,07,11,34,19.20
2014,06,07,11,35,19.20
2014,06,07,11,36,19.20
2014,06,07,11,37,19.20
2014,06,07,11,38,19.30
2014,06,07,11,39,19.30
2014,06,07,11,40,19.40
2014,06,07,11,41,19.50
2014,06,07,11,42,19.60
2014,06,07,11,43,19.70
2014,06,07,11,44,19.80
2014,06,07,11,45,19.80
2014,06,07,11,46,19.70
2014,06,07,11,47,19.60
2014,06,07,11,48,19.50
2014,06,07,11,49,19.40
2014,06,07,11,50,19.30
2014,06,07,11,51,19.20
2014,06,07,11,52,19.20
2014,06,07,11,53,19.30
2014,06,07,11,54,19.30
2014,06,07,11,55,19.20
2014,06,07,11,56,19.00
2014,06,07,11,57,18.90
2014,06,07,11,58,18.80
2014,06,07,11,59,18.80
2014,06,07,12,00,18.80
2014,06,07,12,01,18.70
2014,06,07,12,02,18.60
2014,06,07,12,03,18.60
2014,06,07,12,04,18.50
2014,06,07,12,05,18.60
2014,06,07,12,06,18.70
2014,06,07,12,07,18.90
2014,06,07,12,08,19.00
2014,06,07,12,09,19.10
2014,06,07,12,10,19.20
2014,06,07,12,11,19.20
2014,06,07,12,12,19.30
2014,06,07,12,13,19.30
2014,06,07,12,14,19.30
2014,06,07,12,15,19.30
2014,06,07,12,16,19.30
2014,06,07,12,17,19.40
2014,06,07,12,18,19.40
2014,06,07,12,19,19.40
2014,06,07,12,20,19.30
2014,06,07,12,21,19.30
2014,06,07,12,22,19.30
2014,06,07,12,23,19.20
2014,06,07,12,24,19.20
2014,06,07,12,25,19.20
2014,06,07,12,26,19.30
2014,06,07,12,27,19.20
2014,06,07,12,28,19.20
2014,06,07,12,29,19.20
2014,06,07,12,30,19.20
2014,06,07,12,31,19.10
2014,06,07,12,32,19.10
2014,06,07,12,33,19.00
2014,06,07,12,34,19.00
2014,06,07,12,35,19.00
2014,06,07,12,36,19.00
2014,06,07,12,37,18.90
2014,06,07,12,38,18.80
2014,06,07,12,39,18.70
2014,06,07,12,40,18.60
2014,06,07,12,41,18.50
2014,06,07,12,42,18.50
2014,06,07,12,43,18.50
2014,06,07,12,44,18.40
2014,06,07,12,45,18.50
2014,06,07,12,46,18.50
2014,06,07,12,47,18.60
2014,06,07,12,48,18.70
2014,06,07,12,49,18.80
2014,06,07,12,50,18.90
2014,06,07,12,51,19.00
2014,06,07,12,52,19.10
2014,06,07,12,53,19.20
2014,06,07,12,54,19.30
2014,06,07,12,55,19.40
2014,06,07,12,56,19.40
2014,06,07,12,57,19.40
2014,06,07,12,58,19.40
2014,06,07,12,59,19.40
2014,06,07,13,00,19.50
2014,06,07,13,01,19.40
2014,06,07,13,02,19.30
2014,06,07,13,03,19.30
2014,06,07,13,04,19.30
2014,06,07,13,05,19.40
2014,06,07,13,06,19.40
2014,06,07,13,07,19.30
2014,06,07,13,08,19.30
2014,06,07,13,09,19.40
2014,06,07,13,10,19.50
2014,06,07,13,11,19.60
2014,06,07,13,12,19.60
2014,06,07,13,13,19.60
2014,06,07,13,14,19.60
2014,06,07,13,15,19.60
2014,06,07,13,16,19.60
2014,06,07,13,17,19.60
2014,06,07,13,18,19.70
2014,06,07,13,19,19.60
2014,06,07,13,20,19.70
2014,06,07,13,21,19.70
2014,06,07,13,22,19.80
2014,06,07,13,23,19.80
2014,06,07,13,24,19.90
2014,06,07,13,25,19.90
2014,06,07,13,26,19.90
2014,06,07,13,27,19.90
2014,06,07,13,28,20.00
2014,06,07,13,29,20.10
2014,06,07,13,30,20.20
2014,06,07,13,31,20.20
2014,06,07,13,32,20.30
2014,06,07,13,33,20.30
2014,06,07,13,34,20.40
2014,06,07,13,35,20.40
2014,06,07,13,36,20.40
2014,06,07,13,37,20.50
2014,06,07,13,38,20.50
2014,06,07,13,39,20.40
2014,06,07,13,40,20.30
2014,06,07,13,41,20.10
2014,06,07,13,42,19.90
2014,06,07,13,43,19.80
2014,06,07,13,44,19.80
2014,06,07,13,45,19.80
2014,06,07,13,46,19.80
2014,06,07,13,47,19.90
2014,06,07,13,48,20.00
2014,06,07,13,49,20.10
2014,06,07,13,50,20.10
2014,06,07,13,51,20.10
2014,06,07,13,52,20.10
2014,06,07,13,53,20.10
2014,06,07,13,54,20.10
2014,06,07,13,55,20.20
2014,06,07,13,56,20.20
2014,06,07,13,57,20.30
2014,06,07,13,58,20.30
2014,06,07,13,59,20.40
2014,06,07,14,00,20.40
2014,06,07,14,01,20.50
2014,06,07,14,02,20.60
2014,06,07,14,03,20.60
2014,06,07,14,04,20.60
2014,06,07,14,05,20.60
2014,06,07,14,06,20.50
2014,06,07,14,07,20.50
2014,06,07,14,08,20.50
2014,06,07,14,09,20.50
2014,06,07,14,10,20.30
2014,06,07,14,11,20.10
2014,06,07,14,12,19.90
2014,06,07,14,13,19.80
2014,06,07,14,14,19.80
2014,06,07,14,15,19.80
2014,06,07,14,16,19.80
2014,06,07,14,17,19.90
2014,06,07,14,18,20.00
2014,06,07,14,19,20.10
2014,06,07,14,20,20.20
2014,06,07,14,21,20.30
2014,06,07,14,22,20.30
2014,06,07,14,23,20.50
2014,06,07,14,24,20.40
2014,06,07,14,25,20.30
2014,06,07,14,26,20.40
2014,06,07,14,27,20.50
2014,06,07,14,28,20.60
2014,06,07,14,29,20.70
2014,06,07,14,30,20.80
2014,06,07,14,31,20.80
2014,06,07,14,32,20.70
2014,06,07,14,33,20.60
2014,06,07,14,34,20.50
2014,06,07,14,35,20.40
2014,06,07,14,36,20.40
2014,06,07,14,37,20.40
2014,06,07,14,38,20.40
2014,06,07,14,39,20.30
2014,06,07,14,40,20.30
2014,06,07,14,41,20.30
2014,06,07,14,42,20.30
2014,06,07,14,43,20.30
2014,06,07,14,44,20.30
2014,06,07,14,45,20.30
2014,06,07,14,46,20.30
2014,06,07,14,47,20.30
2014,06,07,14,48,20.40
2014,06,07,14,49,20.50
2014,06,07,14,50,20.60
2014,06,07,14,51,20.60
2014,06,07,14,52,20.70
2014,06,07,14,53,20.80
2014,06,07,14,54,20.90
2014,06,07,14,55,20.90
2014,06,07,14,56,20.80
2014,06,07,14,57,20.70
2014,06,07,14,58,20.70
2014,06,07,14,59,20.60
2014,06,07,15,00,20.70
2014,06,07,15,01,20.70
2014,06,07,15,02,20.80
2014,06,07,15,03,20.90
2014,06,07,15,04,21.00
2014,06,07,15,05,21.00
2014,06,07,15,06,20.90
2014,06,07,15,07,20.80
2014,06,07,15,08,20.70
2014,06,07,15,09,20.60
2014,06,07,15,10,20.50
2014,06,07,15,11,20.40
2014,06,07,15,12,20.20
2014,06,07,15,13,20.20
2014,06,07,15,14,20.20
2014,06,07,15,15,20.30
2014,06,07,15,16,20.40
2014,06,07,15,17,20.60
2014,06,07,15,18,20.70
2014,06,07,15,19,20.70
2014,06,07,15,20,20.60
2014,06,07,15,21,20.50
2014,06,07,15,22,20.40
2014,06,07,15,23,20.40
2014,06,07,15,24,20.30
2014,06,07,15,25,20.30
2014,06,07,15,26,20.40
2014,06,07,15,27,20.30
2014,06,07,15,28,20.30
2014,06,07,15,29,20.30
2014,06,07,15,30,20.30
2014,06,07,15,31,20.40
2014,06,07,15,32,20.30
2014,06,07,15,33,20.30
2014,06,07,15,34,20.30
2014,06,07,15,35,20.30
2014,06,07,15,36,20.20
2014,06,07,15,37,20.30
2014,06,07,15,38,20.30
2014,06,07,15,39,20.30
2014,06,07,15,40,20.30
2014,06,07,15,41,20.30
2014,06,07,15,42,20.30
2014,06,07,15,43,20.30
2014,06,07,15,44,20.30
2014,06,07,15,45,20.30
2014,06,07,15,46,20.30
2014,06,07,15,47,20.30
2014,06,07,15,48,20.20
2014,06,07,15,49,20.20
2014,06,07,15,50,20.10
2014,06,07,15,51,20.20
2014,06,07,15,52,20.30
2014,06,07,15,53,20.40
2014,06,07,15,54,20.60
2014,06,07,15,55,20.60
2014,06,07,15,56,20.70
2014,06,07,15,57,20.70
2014,06,07,15,58,20.70
2014,06,07,15,59,20.60
2014,06,07,16,00,20.60
2014,06,07,16,01,20.50
2014,06,07,16,02,20.60
2014,06,07,16,03,20.60
2014,06,07,16,04,20.60
2014,06,07,16,05,20.60
2014,06,07,16,06,20.70
2014,06,07,16,07,20.80
2014,06,07,16,08,20.90
2014,06,07,16,09,20.90
2014,06,07,16,10,20.90
2014,06,07,16,11,20.80
2014,06,07,16,12,20.80
2014,06,07,16,13,20.70
2014,06,07,16,14,20.70
2014,06,07,16,15,20.80
2014,06,07,16,16,20.80
2014,06,07,16,17,20.90
2014,06,07,16,18,20.90
2014,06,07,16,19,20.80
2014,06,07,16,20,20.80
2014,06,07,16,21,20.80
2014,06,07,16,22,20.80
2014,06,07,16,23,20.70
2014,06,07,16,24,20.70
2014,06,07,16,25,20.70
2014,06,07,16,26,20.60
2014,06,07,16,27,20.60
2014,06,07,16,28,20.60
2014,06,07,16,29,20.70
2014,06,07,16,30,20.80
2014,06,07,16,31,20.80
2014,06,07,16,32,20.80
2014,06,07,16,33,20.90
2014,06,07,16,34,20.80
2014,06,07,16,35,20.80
2014,06,07,16,36,20.80
2014,06,07,16,37,20.80
2014,06,07,16,38,20.80
2014,06,07,16,39,20.80
2014,06,07,16,40,20.80
2014,06,07,16,41,20.70
2014,06,07,16,42,20.80
2014,06,07,16,43,20.80
2014,06,07,16,44,20.80
2014,06,07,16,45,20.80
2014,06,07,16,46,20.80
2014,06,07,16,47,20.80
2014,06,07,16,48,20.80
2014,06,07,16,49,20.80
2014,06,07,16,50,20.80
2014,06,07,16,51,20.90
2014,06,07,16,52,21.00
2014,06,07,16,53,21.00
2014,06,07,16,54,21.10
2014,06,07,16,55,21.10
2014,06,07,16,56,21.10
2014,06,07,16,57,21.00
2014,06,07,16,58,21.10
2014,06,07,16,59,21.10
2014,06,07,17,00,21.00
2014,06,07,17,01,20.90
2014,06,07,17,02,20.90
2014,06,07,17,03,20.90
2014,06,07,17,04,21.00
2014,06,07,17,05,21.00
2014,06,07,17,06,21.10
2014,06,07,17,07,21.10
2014,06,07,17,08,21.00
2014,06,07,17,09,21.00
2014,06,07,17,10,20.90
2014,06,07,17,11,20.90
2014,06,07,17,12,21.00
2014,06,07,17,13,21.00
2014,06,07,17,14,21.00
2014,06,07,17,15,21.10
2014,06,07,17,16,21.10
2014,06,07,17,17,21.20
2014,06,07,17,18,21.30
2014,06,07,17,19,21.40